Regional Weather Roundup
Issued by NWS State College, PA

Home | Current Version | Previous Version | Graphics & Text | Print | Product List | Glossary Off
Versions: 1 2 3 4 5 6 7 8 9 10 11 12 13 14 15 16 17 18 19 20 21 22 23 24 25 26 27 28 29 30 31 32 33 34 35 36 37 38 39 40 41 42 43 44 45 46 47 48 49 50

000
ASUS41 KCTP 230003
RWRCTP
REGIONAL WEATHER ROUNDUP
NATIONAL WEATHER SERVICE STATE COLLEGE PA
800 PM EDT FRI SEP 22 2017

Note: "fair" indicates few or no clouds below 12,000 feet with no
significant weather and/or obstructions to visibility.

* = STATION THAT DOES NOT REPORT PRECIPITATION /E.G. RAIN...SNOW...ETC/
    THUNDER OR FOG.

PAZ002>004-007>009-013>016-020>023-029>032-230100-
WESTERN PENNSYLVANIA

CITY           SKY/WX    TMP DP  RH WIND       PRES   REMARKS
ERIE           CLOUDY    70  59  68 S3        30.09F
MEADVILLE      CLEAR     71  61  70 N6        30.12S
FRANKLIN*      CLEAR     70  55  60 N3        30.13R
NEW CASTLE     FAIR      75  61  61 NE6       30.11R
BEAVER COUNTY  NOT AVBL
BUTLER*        CLOUDY    72  58  61 N5        30.10S
PITTSBURGH INT CLOUDY    80  54  40 N5        30.08S
PITTSBURGH     CLOUDY    79  52  38 NE3       30.08S
INDIANA*       CLEAR     68  59  73 CALM      30.12R
LATROBE        PTCLDY    70  66  88 CALM      30.09S
WASHINGTON CO* PTCLDY    66  61  82 CALM      30.09S
$$

PAZ004>006-010>012-017>019-024>028-033>037-041-042-045-046-049>053-230100-
CENTRAL PENNSYLVANIA

CITY           SKY/WX    TMP DP  RH WIND       PRES   REMARKS
BRADFORD       CLEAR     62  57  83 CALM      30.14S
DUBOIS         CLEAR     71  51  49 N6        30.11S
CLEARFIELD     CLEAR     71  56  58 N5        30.10R
JOHNSTOWN      CLEAR     73  52  47 NW6       30.13R
ALTOONA        CLEAR     68  56  65 E5        30.08S
STATE COLLEGE  PTCLDY    73  52  46 CALM      30.07R
WILLIAMSPORT   CLOUDY    69  60  73 SW3       30.03R
SELINSGROVE    CLEAR     64  60  87 N3        30.03R
FT INDIANTOWN  NOT AVBL
CAPITAL CITY   PTCLDY    71  60  68 CALM      30.01R
HARRISBURG     PTCLDY    71  59  65 N3        30.00R
YORK           PTCLDY    65  63  93 CALM      30.01R
$$

PAZ038>040-043-044-047-048-054-055-060>062-067>071-230100-
EASTERN PENNSYLVANIA

CITY           SKY/WX    TMP DP  RH WIND       PRES   REMARKS
SCRANTON       CLEAR     74  49  41 NE8       30.05R
MOUNT POCONO   CLEAR     63  49  60 NW6       30.07R
ALLENTOWN      CLEAR     72  52  49 N3        30.00R
QUAKERTOWN*    CLEAR     66  61  82 CALM      30.01R
READING        CLOUDY    70  60  70 CALM      29.99R
LANCASTER      PTCLDY    71  64  78 NW5       30.00R
COATESVILLE    PTCLDY    73  52  46 N6        30.01S
POTTSTOWN      CLEAR     71  55  56 N3        30.01R
BLUE BELL      CLEAR     64  61  88 CALM      29.99R
DOYLESTOWN     CLEAR     73  55  53 N3        29.97S
WILLOW GROVE   NOT AVBL
NORTH PHILA    CLEAR     76  57  51 N6        29.97R
PHILADELPHIA   MOCLDY    78  56  46 NW7       29.96R
$$




USA.gov is the U.S. government's official web portal to all federal, state and local government web resources and services.